{"data":{"norad_id":66845,"epoch":"2026-09-20T06:10:32.303712Z","epoch_age_seconds":105389,"freshness":"FRESH","line1":"1 66845U 25280AA  26263.25731833  .00004022  00000+0  34473-3 0  9998","line2":"2 66845  70.0007 203.7414 0002989 251.9254 108.1580 14.98322100 45228","mean_motion":14.983221,"eccentricity":0.0002989,"inclination_deg":70.0007,"raan_deg":203.7414,"arg_perigee_deg":251.9254,"mean_anomaly_deg":108.158,"bstar":0.00034473,"rev_number":4522,"period_min":96.107505856051,"perigee_km":570.00290119279,"apogee_km":574.15774110737,"semimajor_km":6950.2173211501,"source":"CELESTRAK","updated_at":"2026-09-21T09:00:36.024722Z"}}